Starlink 5168

operational
NORAD ID: 54071 Int'l Des: 2022-136 Owner: SPXS Country: US Constellation: starlink
LEOCIRCULAR

Über Starlink 5168

Beschreibung wird geladen...

Live-Position

3D-Globus wird geladen...

Nächste Überflüge

Höhenverlauf

Altitude vs Time

uPlot chart will show altitude changes over time

Zweizeiliger Elementsatz

1 54071U 22136W 26034.54168118 .00000069 00000-0 22450-4 0 9992
2 54071 53.2174 137.0723 0001340 99.5586 260.5557 15.08841738181694
Epoch: 3. Feb. 2026 • Age: 8 hours

Aktueller Status

Höhe 544.7 km
Geschwindigkeit 7.59 km/s
Subsatellitenpunkt -16.45°S, 36°E
Startdatum 20. Okt. 2022
Alter 3.2 years
Typ internet

Technische Details

Klassifizierung Payload
Masse 305.00 kg
Trockenmasse 290.00 kg
Gesamtmasse 305.00 kg
Länge 0.20 m
Durchmesser 2.80 m
Spannweite 9.00 m
Form Box + pan
Hersteller SPXS
Bus-Typ Starlink
Phasenstatus In Orbit
Besitzer/Staat SPXS/US

Große Konstellationen

Loading constellations...